Previsão horária em Barrinha

Hoje, 29 Outubro, Quinta-feira

Tempo Temperatura Precipitação Vento Pressão Humidade
00:00 +25°C° 0 mm 1 m/s 712 mmHg 78%
01:00 +25°C° 0 mm 1 m/s 712 mmHg 80%
02:00 +25°C° 0 mm 1 m/s 712 mmHg 83%
03:00 +22°C° 0 mm 0 m/s 712 mmHg 86%
04:00 +22°C° 0 mm 0 m/s 712 mmHg 87%
05:00 +22°C° 0 mm 0 m/s 713 mmHg 87%
06:00 +24°C° 0 mm 1 m/s 713 mmHg 88%
07:00 +26°C° 0.6 mm 1 m/s 714 mmHg 80%
08:00 +28°C° 0.6 mm 1 m/s 714 mmHg 72%
09:00 +30°C° 0.6 mm 2 m/s 714 mmHg 64%
10:00 +31°C° 0.2 mm 2 m/s 714 mmHg 59%
11:00 +34°C° 0.2 mm 2 m/s 714 mmHg 53%
12:00 +35°C° 0.2 mm 3 m/s 714 mmHg 48%
13:00 +35°C° 0 mm 3 m/s 713 mmHg 46%
14:00 +36°C° 0 mm 3 m/s 712 mmHg 45%
15:00 +36°C° 0 mm 3 m/s 712 mmHg 43%
16:00 +34°C° 0.2 mm 3 m/s 712 mmHg 50%
17:00 +32°C° 0.2 mm 4 m/s 712 mmHg 57%
18:00 +29°C° 0.2 mm 4 m/s 712 mmHg 64%
19:00 +27°C° 2.5 mm 4 m/s 713 mmHg 73%
20:00 +26°C° 2.5 mm 4 m/s 714 mmHg 82%
21:00 +23°C° 2.5 mm 4 m/s 715 mmHg 91%
22:00 +23°C° 0.6 mm 4 m/s 715 mmHg 91%
23:00 +22°C° 0.6 mm 4 m/s 715 mmHg 91%

Amanhã, 30 Outubro, Sexta-feira

Tempo Temperatura Precipitação Vento Pressão Humidade
00:00 +22°C° 0.6 mm 4 m/s 714 mmHg 91%
01:00 +22°C° 0 mm 3 m/s 714 mmHg 91%
02:00 +22°C° 0 mm 3 m/s 713 mmHg 91%
03:00 +22°C° 0 mm 3 m/s 713 mmHg 91%
04:00 +23°C° 0 mm 2 m/s 713 mmHg 92%
05:00 +23°C° 0 mm 2 m/s 713 mmHg 92%
06:00 +23°C° 0 mm 2 m/s 714 mmHg 92%
07:00 +24°C° 0 mm 2 m/s 714 mmHg 87%
08:00 +25°C° 0 mm 2 m/s 715 mmHg 81%
09:00 +27°C° 0 mm 2 m/s 715 mmHg 75%
10:00 +27°C° 0.1 mm 2 m/s 715 mmHg 73%
11:00 +28°C° 0.1 mm 3 m/s 715 mmHg 71%
12:00 +29°C° 0.1 mm 3 m/s 715 mmHg 69%
13:00 +29°C° 0.8 mm 3 m/s 714 mmHg 68%
14:00 +29°C° 0.8 mm 4 m/s 714 mmHg 68%
15:00 +29°C° 0.8 mm 4 m/s 713 mmHg 67%
16:00 +28°C° 0.5 mm 4 m/s 713 mmHg 71%
17:00 +26°C° 0.5 mm 5 m/s 713 mmHg 74%
18:00 +25°C° 0.5 mm 5 m/s 713 mmHg 78%
19:00 +23°C° 0 mm 5 m/s 714 mmHg 78%
20:00 +22°C° 0 mm 5 m/s 714 mmHg 78%
21:00 +21°C° 0 mm 5 m/s 715 mmHg 78%
22:00 +21°C° 0 mm 5 m/s 715 mmHg 78%
23:00 +21°C° 0 mm 5 m/s 715 mmHg 77%

Depois de amanhã, 31 Outubro, Sábado

Tempo Temperatura Precipitação Vento Pressão Humidade
00:00 +21°C° 0 mm 5 m/s 715 mmHg 77%
01:00 +21°C° 0 mm 5 m/s 714 mmHg 77%
02:00 +21°C° 0 mm 5 m/s 714 mmHg 76%
03:00 +21°C° 0 mm 5 m/s 714 mmHg 75%
04:00 +21°C° 0 mm 4 m/s 714 mmHg 77%
05:00 +21°C° 0 mm 4 m/s 714 mmHg 79%
06:00 +20°C° 0 mm 3 m/s 715 mmHg 81%
07:00 +22°C° 0 mm 4 m/s 715 mmHg 77%
08:00 +23°C° 0 mm 4 m/s 716 mmHg 72%
09:00 +25°C° 0 mm 4 m/s 716 mmHg 68%
10:00 +26°C° 0 mm 4 m/s 716 mmHg 66%
11:00 +27°C° 0 mm 4 m/s 716 mmHg 63%
12:00 +28°C° 0 mm 4 m/s 716 mmHg 61%
13:00 +28°C° 0 mm 4 m/s 715 mmHg 61%
14:00 +27°C° 0 mm 4 m/s 715 mmHg 61%
15:00 +27°C° 0 mm 5 m/s 714 mmHg 61%
16:00 +26°C° 0 mm 5 m/s 714 mmHg 65%
17:00 +25°C° 0 mm 4 m/s 714 mmHg 68%
18:00 +23°C° 0 mm 4 m/s 714 mmHg 71%
19:00 +22°C° 0 mm 5 m/s 715 mmHg 73%
20:00 +22°C° 0 mm 5 m/s 715 mmHg 75%
21:00 +21°C° 0 mm 5 m/s 716 mmHg 77%
22:00 +20°C° 0.1 mm 5 m/s 716 mmHg 79%
23:00 +20°C° 0.1 mm 4 m/s 716 mmHg 80%

1 Novembro, Domingo

Tempo Temperatura Precipitação Vento Pressão Humidade
00:00 +19°C° 0.1 mm 4 m/s 716 mmHg 82%
01:00 +19°C° 0 mm 4 m/s 715 mmHg 82%
02:00 +19°C° 0 mm 4 m/s 715 mmHg 82%
03:00 +19°C° 0 mm 3 m/s 714 mmHg 82%
04:00 +19°C° 0 mm 3 m/s 715 mmHg 82%
05:00 +18°C° 0 mm 3 m/s 715 mmHg 82%
06:00 +18°C° 0 mm 3 m/s 715 mmHg 83%
07:00 +20°C° 0 mm 3 m/s 715 mmHg 78%
08:00 +21°C° 0 mm 3 m/s 716 mmHg 73%
09:00 +24°C° 0 mm 3 m/s 716 mmHg 69%
10:00 +25°C° 0 mm 3 m/s 716 mmHg 65%
11:00 +27°C° 0 mm 3 m/s 715 mmHg 61%
12:00 +28°C° 0 mm 3 m/s 715 mmHg 57%
13:00 +28°C° 0.2 mm 3 m/s 715 mmHg 57%
14:00 +28°C° 0.2 mm 4 m/s 714 mmHg 57%
15:00 +28°C° 0.2 mm 4 m/s 714 mmHg 58%
16:00 +27°C° 0 mm 4 m/s 714 mmHg 61%
17:00 +25°C° 0 mm 4 m/s 714 mmHg 64%
18:00 +23°C° 0 mm 5 m/s 714 mmHg 68%
19:00 +22°C° 0 mm 5 m/s 714 mmHg 69%
20:00 +21°C° 0 mm 5 m/s 714 mmHg 70%
21:00 +20°C° 0 mm 5 m/s 715 mmHg 72%
22:00 +19°C° 0 mm 5 m/s 715 mmHg 73%
23:00 +18°C° 0 mm 4 m/s 715 mmHg 73%

2 Novembro, Segunda-feira

Tempo Temperatura Precipitação Vento Pressão Humidade
00:00 +18°C° 0 mm 4 m/s 715 mmHg 74%
01:00 +17°C° 0 mm 4 m/s 715 mmHg 75%
02:00 +17°C° 0 mm 4 m/s 714 mmHg 75%
03:00 +16°C° 0 mm 3 m/s 714 mmHg 75%
04:00 +16°C° 0 mm 3 m/s 714 mmHg 76%
05:00 +14°C° 0 mm 3 m/s 714 mmHg 77%
06:00 +14°C° 0 mm 3 m/s 714 mmHg 78%
07:00 +17°C° 0 mm 3 m/s 715 mmHg 73%
08:00 +20°C° 0 mm 3 m/s 715 mmHg 69%
09:00 +22°C° 0 mm 3 m/s 715 mmHg 65%
10:00 +25°C° 0 mm 3 m/s 715 mmHg 60%
11:00 +26°C° 0 mm 3 m/s 715 mmHg 56%
12:00 +28°C° 0 mm 3 m/s 715 mmHg 52%
13:00 +29°C° 0 mm 3 m/s 714 mmHg 51%
14:00 +29°C° 0 mm 3 m/s 714 mmHg 49%
15:00 +29°C° 0 mm 2 m/s 713 mmHg 48%
16:00 +28°C° 0 mm 2 m/s 713 mmHg 51%
17:00 +27°C° 0 mm 2 m/s 713 mmHg 55%
18:00 +26°C° 0 mm 2 m/s 713 mmHg 58%
19:00 +25°C° 0 mm 3 m/s 714 mmHg 60%
20:00 +22°C° 0 mm 3 m/s 714 mmHg 61%
21:00 +21°C° 0 mm 4 m/s 715 mmHg 63%
22:00 +20°C° 0 mm 4 m/s 715 mmHg 66%
23:00 +19°C° 0 mm 4 m/s 715 mmHg 69%

3 Novembro, Terça-feira

Tempo Temperatura Precipitação Vento Pressão Humidade
00:00 +18°C° 0 mm 4 m/s 715 mmHg 72%
01:00 +17°C° 0 mm 3 m/s 715 mmHg 74%
02:00 +17°C° 0 mm 3 m/s 714 mmHg 76%
03:00 +16°C° 0 mm 2 m/s 714 mmHg 79%
04:00 +16°C° 0 mm 2 m/s 714 mmHg 80%
05:00 +16°C° 0 mm 2 m/s 715 mmHg 81%
06:00 +16°C° 0 mm 3 m/s 715 mmHg 83%
07:00 +19°C° 0 mm 3 m/s 715 mmHg 76%
08:00 +21°C° 0 mm 3 m/s 716 mmHg 69%
09:00 +24°C° 0 mm 3 m/s 716 mmHg 62%
10:00 +26°C° 0.1 mm 3 m/s 716 mmHg 59%
11:00 +27°C° 0.1 mm 2 m/s 716 mmHg 55%
12:00 +29°C° 0.1 mm 2 m/s 716 mmHg 51%
13:00 +29°C° 0.4 mm 2 m/s 716 mmHg 50%
14:00 +30°C° 0.4 mm 1 m/s 715 mmHg 48%
15:00 +30°C° 0.4 mm 1 m/s 714 mmHg 47%
16:00 +28°C° 0.2 mm 1 m/s 714 mmHg 53%
17:00 +27°C° 0.2 mm 2 m/s 714 mmHg 60%
18:00 +25°C° 0.2 mm 2 m/s 713 mmHg 67%
19:00 +24°C° 0 mm 2 m/s 714 mmHg 69%
20:00 +23°C° 0 mm 2 m/s 714 mmHg 71%
21:00 +23°C° 0 mm 2 m/s 715 mmHg 73%
22:00 +21°C° 0 mm 3 m/s 715 mmHg 75%
23:00 +20°C° 0 mm 3 m/s 715 mmHg 77%
Mostrar mais